Vorticity
7 7 7 6 5 4 4 4 4 5 7 7 7 7 6 6 7 7 7 7 6 6 6 6 6 6 5 4 4 4 4 3 2 1 -0 1 5 9 13 16 16 15 13 11 11 11 10 9 8 8 8 9 10 10 10 10 8 7 6 6 6 6 7 8 9 10 11 12 12
7 7 6 6 5 4 4 4 5 6 7 7 7 6 6 7 7 7 7 7 6 6 6 6 5 5 4 4 4 3 3 3 2 1 1 2 7 11 15 17 16 14 12 11 12 11 11 10 9 8 8 9 10 10 10 10 8 7 6 6 6 6 7 8 10 11 12 12 11
7 6 6 5 5 5 5 5 6 6 7 6 6 6 6 7 8 8 7 7 7 6 6 5 4 4 3 3 3 3 3 2 2 1 2 4 10 14 17 18 16 14 12 11 12 12 12 10 10 9 8 8 9 10 10 9 9 8 7 6 5 6 7 9 10 11 12 13 12
7 6 6 5 5 5 5 5 6 6 6 6 6 6 7 7 8 8 7 7 6 6 5 5 4 3 3 3 3 3 3 2 1 2 3 8 13 16 18 19 16 13 11 11 12 13 12 11 10 9 9 8 9 9 9 8 8 8 7 5 5 6 8 9 10 12 13 13 12
7 6 6 5 5 5 5 6 6 6 6 6 6 6 7 7 8 7 7 6 6 5 5 4 4 3 3 3 4 4 3 2 1 3 6 11 15 18 19 19 15 12 11 12 13 13 12 11 10 9 9 8 9 9 9 8 8 7 6 5 6 7 8 9 11 13 14 13 12
7 7 6 5 5 5 5 6 6 6 6 6 6 7 7 7 7 7 6 6 6 6 5 4 4 3 3 3 4 3 3 2 2 5 9 15 17 19 20 18 13 11 11 12 13 13 13 12 11 10 9 8 9 9 9 9 8 7 6 6 6 7 8 10 11 12 13 13 12
7 7 6 5 5 5 6 6 6 6 6 6 7 7 7 7 7 7 6 7 6 5 4 4 3 3 3 3 4 3 3 2 4 8 13 17 19 20 20 16 12 11 11 12 13 13 13 12 11 9 9 8 9 9 9 9 8 7 6 6 6 7 9 10 11 13 13 13 12
8 6 5 5 5 5 6 6 6 6 6 6 7 7 7 7 7 7 7 6 5 5 4 4 4 3 4 4 4 4 3 3 7 12 16 18 20 21 19 14 11 10 10 12 13 13 13 13 11 10 8 8 9 9 9 9 8 8 7 6 6 7 9 10 11 13 14 13 11
7 6 5 4 5 6 6 6 6 7 7 7 7 7 7 7 7 7 6 6 5 5 5 4 3 3 4 4 4 4 4 6 12 16 18 19 21 20 17 12 11 10 10 11 13 13 13 12 11 10 8 8 8 9 9 8 8 8 8 7 6 7 9 11 12 13 14 13 12
6 5 5 5 5 5 6 6 7 7 7 7 7 7 7 7 7 7 6 6 6 5 4 3 3 3 3 4 4 4 6 10 16 18 19 21 21 18 15 12 10 10 10 11 12 13 13 12 11 9 8 8 8 8 8 9 8 8 7 7 6 7 8 11 12 13 13 13 12
6 5 5 5 5 5 6 6 6 7 7 7 7 7 7 7 6 6 6 6 5 4 3 3 2 3 3 4 4 6 10 16 17 18 19 21 19 16 13 11 10 10 10 11 12 13 13 12 10 9 8 8 9 9 8 9 8 8 7 7 7 8 9 10 12 13 13 13 12
5 5 5 5 5 5 6 6 6 7 7 7 7 7 6 6 6 6 6 6 5 4 3 2 2 3 3 4 6 9 14 18 18 19 20 20 17 14 12 11 10 10 10 11 12 13 13 12 10 9 8 8 9 9 9 8 8 8 7 6 8 9 10 10 12 13 13 13 11
6 5 5 5 5 5 6 6 6 6 7 7 6 6 6 6 6 6 6 5 5 4 3 2 2 3 4 5 9 14 17 18 18 19 20 18 15 13 12 10 10 10 11 12 13 13 12 11 10 9 8 8 9 9 9 8 8 8 7 6 8 9 10 11 12 12 13 12 12
6 6 5 5 5 6 6 6 6 6 6 6 6 6 6 6 6 5 5 5 4 3 2 2 2 3 5 7 13 17 19 18 19 20 19 16 14 12 11 10 10 10 11 12 12 13 12 11 10 9 8 8 8 9 9 9 8 8 7 7 8 9 10 11 12 12 12 12 12
6 6 6 6 6 6 6 6 6 6 6 6 6 6 6 5 5 5 4 4 4 3 2 2 2 4 6 11 16 19 19 19 21 19 17 14 13 12 11 10 10 10 11 12 12 12 12 10 9 9 9 9 9 9 9 9 8 8 8 8 8 9 10 11 12 12 13 12 11
6 6 6 6 6 6 6 6 6 6 6 6 6 6 5 4 4 4 4 4 3 2 2 2 3 6 9 15 19 20 20 21 21 18 15 13 12 11 11 10 10 11 11 12 12 12 11 10 9 9 9 9 9 9 8 8 8 8 8 8 8 9 10 11 12 12 13 12 11
6 6 6 6 6 6 6 6 6 6 6 6 6 5 5 4 3 3 3 3 3 2 2 2 4 8 13 19 21 22 22 22 19 16 14 12 12 11 11 11 11 11 11 12 12 11 11 10 9 9 9 9 9 9 8 8 8 7 7 7 8 10 11 11 12 12 12 12 11
5 5 6 6 6 6 6 6 6 6 6 6 6 5 4 4 3 3 3 3 3 2 2 3 6 11 18 22 23 24 23 20 17 14 13 12 12 12 12 12 12 11 11 12 12 11 10 9 9 9 9 10 10 9 8 8 8 7 7 7 8 10 11 12 13 13 12 11 11
5 5 5 6 6 6 6 7 7 7 6 6 5 5 4 3 4 4 4 3 3 2 3 5 10 16 22 25 25 24 22 18 15 13 12 12 12 13 13 13 12 12 12 12 12 11 10 9 8 9 9 10 9 9 9 8 8 7 7 7 8 10 11 13 13 13 12 11 10
4 5 5 5 6 6 6 7 7 7 7 6 5 4 4 4 4 4 4 3 3 3 4 8 15 21 26 27 26 23 20 16 13 12 11 11 12 12 12 13 13 13 13 13 12 11 10 9 8 9 9 9 9 9 9 9 8 8 7 8 9 10 11 13 13 13 12 11 11
4 5 5 5 6 6 7 7 7 7 6 6 5 5 4 4 5 4 4 3 3 4 6 12 21 26 29 28 25 21 17 13 11 10 9 8 8 9 10 11 12 13 14 13 12 10 9 8 8 9 9 9 9 9 9 8 8 8 7 8 9 10 12 13 13 13 12 11 11
4 5 5 6 6 7 7 7 7 7 6 6 5 5 5 5 5 4 4 3 3 6 11 19 27 30 30 26 21 17 13 10 8 6 5 3 3 4 5 9 12 14 15 14 12 10 9 8 8 9 9 9 9 9 9 9 8 7 7 7 9 10 12 13 14 13 13 12 12
4 5 5 6 6 7 7 8 7 7 6 5 5 5 5 5 4 4 3 3 5 10 18 27 32 31 27 21 17 13 9 6 4 1 -1 -2 -2 -0 3 7 11 14 15 14 12 10 8 8 8 9 9 10 9 9 9 9 8 7 7 7 9 11 13 14 14 14 13 13 13
5 5 6 6 7 7 8 8 7 7 6 6 5 5 5 5 4 3 3 4 9 17 26 34 33 28 21 15 11 8 4 1 -2 -4 -5 -4 -2 1 4 7 11 14 15 14 12 10 8 8 8 8 9 10 10 10 9 9 8 8 7 7 9 11 13 15 15 14 13 13 12
6 6 6 7 7 7 8 8 7 7 7 6 6 5 5 4 3 3 4 7 16 26 33 35 28 20 13 8 5 2 -1 -4 -7 -7 -5 -0 4 6 7 7 10 13 15 14 12 10 8 8 8 9 9 10 10 10 10 10 9 8 8 8 9 11 13 14 15 15 13 12 12
6 7 7 7 8 8 8 8 8 8 7 7 6 5 4 3 3 4 8 15 26 33 35 28 18 10 5 1 -1 -3 -5 -7 -7 -4 -1 5 10 10 9 7 9 12 14 14 12 9 8 8 8 9 9 10 10 10 10 10 9 8 8 8 10 11 12 13 14 14 13 12 11
7 8 8 8 8 8 8 8 8 8 7 6 5 4 3 3 4 8 15 25 33 33 28 17 7 1 -3 -5 -6 -6 -6 -4 -1 2 6 10 12 11 9 7 9 12 15 15 12 9 8 7 8 8 9 10 11 10 10 8 8 7 7 8 9 12 13 14 13 12 11 11 11
8 8 8 8 7 7 7 7 7 7 7 6 5 4 3 4 8 15 24 33 33 27 17 6 -1 -6 -8 -8 -6 -4 -1 2 7 11 13 14 12 10 7 6 9 13 15 15 12 9 7 7 7 8 9 10 11 11 10 8 7 7 7 7 9 11 13 14 13 11 11 10 11
8 8 8 7 7 7 7 7 7 7 7 6 4 4 4 7 15 23 30 33 26 17 7 -2 -7 -8 -7 -4 -0 3 7 11 15 18 18 15 11 9 7 7 10 13 16 15 11 8 7 7 7 8 9 10 11 11 10 9 7 7 7 8 9 11 12 13 13 12 11 10 11
9 8 8 7 7 6 6 6 7 7 7 5 4 5 8 14 23 29 31 27 18 8 -1 -7 -8 -5 -0 4 8 12 15 17 19 20 19 14 10 8 7 7 10 14 16 14 10 8 6 6 7 8 9 10 11 11 10 9 8 7 7 8 9 11 12 13 12 12 11 11 11
11 10 8 7 6 6 7 7 8 8 7 5 6 9 15 23 28 29 25 18 9 1 -5 -7 -3 3 8 12 15 17 18 18 19 19 17 13 10 8 7 7 11 15 16 13 9 7 6 6 7 8 9 10 11 11 10 9 8 8 7 8 9 11 12 13 13 12 11 11 11
13 11 10 8 8 8 9 9 9 8 7 7 10 15 22 27 27 24 18 10 2 -3 -4 0 6 11 14 17 18 19 18 18 18 18 17 14 10 8 7 8 12 15 15 12 8 6 6 6 8 9 10 11 11 11 10 9 8 8 7 8 9 11 12 13 13 12 11 11 11
14 12 11 10 10 11 11 11 10 9 9 11 16 20 24 25 23 18 11 4 -1 -1 3 9 13 16 17 17 17 17 17 17 18 19 18 15 10 7 6 8 13 15 15 11 8 6 6 6 8 9 10 11 11 11 10 9 8 7 8 9 10 11 12 13 13 12 11 11 11
14 14 13 13 13 12 11 11 11 11 13 15 19 22 24 22 18 12 5 0 2 6 11 15 17 17 17 16 15 14 15 17 20 21 20 15 8 5 5 9 13 15 14 10 7 6 6 6 8 10 11 11 11 11 10 9 8 8 8 9 10 12 13 14 13 12 12 11 11
15 15 15 14 13 12 12 12 13 14 16 19 22 23 22 19 12 7 4 5 10 14 16 17 17 15 14 12 12 12 14 17 21 23 20 14 7 4 5 9 13 14 13 9 6 5 6 7 9 10 11 12 11 11 10 9 8 8 8 9 10 11 13 14 14 13 12 11 11
17 17 16 15 15 15 15 16 17 18 19 22 23 22 18 13 9 8 9 13 16 17 17 16 13 11 10 10 11 12 15 19 22 22 19 12 5 3 4 9 13 13 11 8 6 5 6 7 9 10 11 12 11 11 10 9 9 8 8 9 10 11 12 13 13 13 12 11 11
19 19 18 18 19 20 20 21 20 21 22 24 22 18 14 11 11 13 15 18 18 17 16 13 10 9 9 9 10 12 15 19 22 21 17 10 4 2 4 9 12 12 11 8 6 5 6 7 9 10 12 12 12 11 10 9 9 9 9 10 10 11 12 13 13 12 12 11 11
21 21 22 23 24 24 23 22 22 23 23 22 18 15 14 14 15 17 19 19 18 15 12 9 8 8 9 9 10 12 15 19 21 20 16 10 4 2 4 8 11 11 10 7 6 5 6 7 9 11 12 12 12 11 10 9 9 9 9 10 10 11 12 13 13 13 12 11 11
23 25 26 27 26 25 23 22 22 22 21 18 16 15 16 17 18 19 19 17 14 12 9 8 8 9 9 10 10 12 14 17 20 19 15 9 5 3 4 8 10 11 10 7 6 5 6 7 9 11 12 13 12 11 10 9 9 9 9 9 10 11 12 14 14 13 12 11 11
26 27 27 26 24 22 21 21 20 19 18 17 17 17 17 18 18 17 15 12 10 9 8 8 9 9 10 10 10 12 13 16 19 18 15 10 5 3 4 7 10 10 9 7 6 6 6 7 9 10 12 13 12 11 10 9 9 9 9 10 10 11 12 14 14 13 12 11 11
28 27 25 22 21 20 19 19 18 18 17 17 17 18 18 17 15 12 10 8 7 8 8 9 10 10 10 10 11 12 13 15 17 17 16 11 6 4 4 7 9 10 9 7 6 6 6 7 9 10 12 12 12 11 10 9 9 9 9 10 11 12 12 12 13 13 13 11 11
Height
5698 5695 5693 5690 5688 5685 5683 5680 5678 5675 5673 5670 5668 5665 5662 5659 5657 5654 5651 5649 5646 5643 5640 5637 5634 5631 5628 5625 5622 5619 5615 5612 5608 5605 5601 5597 5594 5589 5586 5582 5578 5574 5570 5566 5562 5558 5554 5551 5547 5543 5539 5535 5531 5526 5522 5518 5513 5509 5504 5499 5494 5489 5484 5479 5474 5469 5463 5457 5452
5694 5691 5689 5687 5684 5682 5679 5677 5674 5672 5669 5666 5664 5661 5658 5655 5653 5650 5648 5645 5642 5639 5636 5633 5630 5627 5624 5621 5618 5614 5611 5607 5604 5600 5597 5593 5589 5585 5581 5577 5574 5569 5566 5562 5558 5554 5550 5547 5543 5539 5535 5531 5527 5523 5518 5514 5509 5505 5500 5495 5490 5485 5481 5476 5470 5465 5460 5454 5448
5690 5687 5685 5683 5680 5678 5675 5673 5670 5668 5665 5663 5660 5657 5654 5652 5649 5646 5644 5641 5638 5635 5632 5629 5626 5623 5620 5617 5614 5610 5607 5604 5600 5596 5593 5589 5585 5581 5577 5573 5569 5565 5561 5558 5554 5550 5546 5543 5539 5535 5531 5527 5523 5519 5514 5510 5505 5501 5496 5492 5487 5482 5477 5472 5467 5462 5456 5451 5445
5686 5684 5681 5679 5676 5674 5672 5669 5667 5664 5661 5659 5656 5653 5650 5648 5645 5643 5640 5637 5634 5631 5629 5625 5623 5619 5616 5613 5609 5606 5603 5599 5596 5592 5589 5585 5581 5577 5573 5569 5565 5561 5557 5554 5550 5546 5542 5539 5535 5531 5527 5523 5519 5515 5510 5506 5502 5497 5493 5488 5483 5479 5474 5469 5464 5459 5453 5448 5442
5682 5680 5677 5675 5673 5670 5668 5665 5663 5660 5657 5655 5652 5649 5647 5644 5641 5639 5636 5633 5630 5628 5625 5622 5619 5615 5612 5609 5605 5602 5599 5595 5592 5588 5584 5580 5576 5572 5568 5564 5561 5557 5553 5549 5546 5542 5539 5535 5531 5527 5524 5520 5515 5511 5507 5503 5498 5494 5489 5484 5479 5475 5470 5465 5460 5455 5450 5444 5439
5678 5676 5673 5671 5669 5666 5664 5661 5659 5656 5654 5651 5648 5645 5643 5640 5638 5635 5632 5629 5627 5624 5621 5618 5615 5612 5609 5605 5602 5598 5595 5592 5588 5584 5580 5576 5571 5568 5564 5560 5556 5553 5549 5545 5542 5538 5535 5531 5527 5524 5520 5516 5512 5508 5503 5499 5495 5490 5485 5481 5476 5471 5467 5462 5457 5452 5447 5441 5435
5674 5672 5669 5667 5664 5662 5660 5658 5655 5652 5650 5647 5644 5642 5639 5637 5634 5631 5629 5626 5623 5620 5617 5614 5611 5608 5604 5601 5598 5594 5591 5588 5584 5580 5576 5571 5567 5563 5560 5556 5552 5549 5545 5542 5538 5534 5531 5528 5524 5520 5516 5512 5508 5504 5500 5496 5491 5487 5482 5477 5473 5468 5464 5459 5454 5449 5444 5438 5433
5670 5668 5665 5663 5660 5658 5656 5654 5651 5649 5646 5643 5641 5638 5635 5633 5630 5628 5625 5622 5619 5616 5614 5610 5607 5604 5601 5597 5594 5591 5587 5584 5580 5576 5571 5567 5563 5559 5555 5552 5548 5544 5541 5538 5534 5531 5527 5524 5520 5517 5513 5509 5505 5501 5496 5492 5488 5484 5479 5474 5469 5464 5460 5455 5451 5446 5441 5435 5430
5666 5664 5661 5659 5656 5654 5652 5650 5647 5645 5642 5639 5637 5634 5632 5629 5627 5624 5621 5619 5615 5613 5610 5607 5604 5600 5597 5594 5590 5587 5583 5580 5576 5571 5567 5563 5559 5555 5551 5548 5544 5540 5537 5534 5530 5527 5524 5520 5517 5513 5509 5506 5502 5497 5493 5489 5485 5480 5476 5471 5467 5462 5457 5452 5448 5443 5438 5432 5427
5662 5660 5657 5655 5652 5650 5648 5646 5644 5641 5639 5636 5634 5631 5628 5626 5623 5620 5618 5615 5612 5609 5606 5603 5599 5596 5593 5590 5587 5583 5579 5576 5572 5567 5562 5559 5555 5551 5548 5544 5540 5537 5533 5530 5527 5524 5520 5517 5514 5510 5506 5502 5499 5494 5490 5486 5482 5477 5473 5468 5464 5459 5454 5449 5444 5440 5435 5429 5424
5659 5656 5654 5651 5649 5646 5644 5642 5640 5637 5635 5632 5630 5627 5624 5622 5619 5617 5614 5611 5608 5605 5602 5599 5596 5593 5589 5586 5583 5579 5575 5572 5567 5562 5558 5554 5551 5548 5544 5540 5537 5533 5530 5526 5523 5520 5517 5514 5510 5506 5503 5499 5495 5491 5487 5483 5478 5474 5470 5465 5461 5456 5451 5446 5442 5437 5432 5427 5421
5654 5652 5649 5647 5645 5642 5640 5638 5636 5634 5631 5629 5626 5624 5621 5618 5616 5613 5610 5607 5604 5601 5598 5595 5592 5589 5585 5582 5579 5575 5572 5567 5563 5558 5554 5551 5547 5544 5540 5537 5533 5529 5526 5523 5520 5517 5514 5510 5507 5503 5499 5495 5492 5488 5484 5479 5475 5471 5466 5462 5458 5453 5449 5444 5439 5434 5429 5424 5419
5650 5648 5646 5643 5641 5639 5636 5634 5632 5630 5628 5625 5622 5620 5617 5614 5612 5609 5606 5604 5600 5598 5594 5591 5588 5585 5582 5579 5575 5571 5567 5563 5558 5554 5551 5547 5544 5540 5537 5533 5529 5526 5523 5520 5517 5514 5510 5507 5504 5500 5496 5492 5488 5484 5480 5476 5472 5468 5464 5459 5454 5450 5445 5441 5436 5431 5426 5421 5416
5647 5644 5642 5639 5637 5634 5632 5630 5628 5626 5624 5621 5619 5616 5614 5611 5608 5605 5603 5600 5597 5594 5591 5588 5584 5581 5578 5575 5571 5567 5563 5559 5554 5551 5547 5544 5540 5537 5533 5530 5526 5523 5520 5517 5514 5510 5508 5504 5501 5497 5493 5489 5485 5481 5477 5473 5469 5465 5460 5456 5452 5447 5443 5438 5434 5429 5424 5419 5414
5643 5640 5638 5635 5633 5631 5629 5626 5624 5622 5620 5617 5615 5612 5610 5607 5604 5602 5599 5596 5593 5590 5587 5584 5581 5578 5574 5571 5568 5563 5559 5554 5551 5548 5544 5540 5537 5534 5530 5527 5523 5520 5517 5514 5510 5507 5504 5501 5498 5494 5490 5486 5482 5478 5474 5470 5466 5462 5458 5453 5449 5445 5440 5436 5431 5426 5421 5416 5411
5638 5636 5634 5631 5629 5627 5625 5623 5620 5618 5616 5614 5611 5609 5606 5603 5600 5598 5595 5592 5589 5586 5583 5580 5577 5574 5570 5567 5564 5559 5555 5551 5548 5544 5541 5537 5534 5530 5527 5524 5520 5517 5514 5510 5507 5504 5501 5498 5495 5491 5487 5483 5479 5475 5471 5467 5463 5459 5454 5450 5446 5442 5438 5433 5429 5424 5419 5414 5409
5634 5632 5630 5628 5625 5623 5621 5619 5617 5614 5612 5610 5607 5605 5602 5599 5597 5594 5591 5589 5585 5582 5579 5576 5574 5570 5567 5563 5559 5555 5551 5548 5544 5541 5538 5534 5531 5527 5524 5520 5517 5514 5511 5508 5504 5501 5498 5495 5492 5488 5484 5480 5476 5472 5468 5464 5459 5455 5451 5447 5443 5439 5435 5430 5426 5421 5416 5412 5407
5630 5628 5626 5624 5621 5619 5617 5615 5613 5610 5608 5606 5604 5601 5598 5596 5593 5590 5587 5585 5582 5579 5576 5573 5569 5567 5564 5559 5555 5551 5548 5545 5541 5538 5535 5531 5528 5524 5521 5518 5514 5511 5508 5504 5501 5499 5495 5492 5489 5485 5481 5478 5474 5469 5465 5461 5457 5453 5449 5444 5440 5436 5432 5428 5423 5419 5414 5409 5404
5626 5624 5622 5620 5618 5615 5613 5611 5609 5607 5604 5602 5599 5597 5594 5592 5589 5586 5584 5581 5578 5575 5572 5569 5566 5563 5559 5555 5551 5548 5545 5542 5538 5535 5532 5528 5525 5521 5518 5514 5511 5508 5505 5502 5499 5495 5492 5489 5486 5482 5479 5475 5471 5467 5463 5459 5454 5450 5446 5442 5438 5434 5429 5425 5420 5416 5411 5407 5402
5622 5620 5618 5616 5614 5611 5609 5607 5605 5603 5600 5598 5596 5593 5591 5588 5585 5583 5580 5577 5574 5571 5569 5565 5563 5559 5555 5551 5548 5545 5542 5539 5535 5532 5529 5525 5522 5519 5515 5512 5508 5505 5502 5499 5496 5493 5489 5486 5483 5479 5476 5472 5468 5464 5460 5456 5452 5448 5444 5439 5435 5431 5427 5422 5418 5413 5409 5404 5399
5618 5616 5614 5612 5610 5608 5605 5603 5601 5599 5597 5594 5592 5589 5587 5584 5582 5579 5576 5574 5571 5568 5565 5562 5559 5555 5551 5548 5545 5542 5539 5535 5532 5529 5526 5522 5519 5515 5512 5509 5506 5502 5499 5496 5493 5490 5487 5483 5480 5477 5473 5469 5465 5462 5458 5454 5449 5445 5441 5437 5433 5429 5424 5420 5416 5411 5406 5401 5396
5614 5612 5610 5608 5606 5604 5602 5599 5597 5595 5593 5591 5588 5586 5584 5581 5578 5575 5573 5570 5567 5564 5561 5558 5555 5551 5548 5545 5542 5539 5535 5533 5529 5526 5523 5519 5516 5512 5509 5506 5503 5500 5496 5493 5490 5487 5484 5480 5477 5474 5471 5467 5463 5459 5455 5451 5447 5443 5439 5435 5431 5426 5422 5418 5413 5409 5404 5399 5394
5609 5607 5605 5604 5602 5600 5598 5596 5594 5591 5589 5587 5585 5582 5580 5577 5574 5572 5569 5566 5563 5560 5558 5555 5551 5548 5545 5542 5539 5536 5533 5529 5526 5523 5519 5516 5513 5509 5506 5504 5500 5497 5494 5490 5487 5484 5481 5478 5474 5471 5468 5464 5460 5456 5452 5449 5444 5440 5437 5433 5428 5424 5420 5415 5410 5406 5401 5397 5392
5605 5603 5601 5599 5598 5596 5594 5592 5590 5588 5585 5583 5581 5579 5576 5574 5571 5568 5565 5562 5560 5557 5554 5551 5548 5545 5542 5539 5535 5533 5529 5526 5523 5519 5516 5513 5510 5507 5504 5501 5498 5494 5491 5487 5484 5481 5478 5475 5472 5469 5465 5462 5458 5454 5450 5446 5442 5438 5434 5430 5426 5422 5417 5413 5408 5404 5399 5395 5391
5601 5599 5597 5595 5594 5592 5590 5588 5586 5584 5582 5579 5577 5575 5573 5570 5567 5564 5562 5559 5557 5554 5551 5548 5544 5541 5539 5535 5532 5529 5526 5523 5520 5517 5514 5510 5507 5504 5502 5498 5495 5491 5488 5485 5482 5479 5476 5473 5469 5466 5463 5459 5455 5451 5447 5443 5439 5435 5432 5428 5424 5419 5415 5411 5406 5402 5398 5394 5390
5597 5595 5593 5592 5590 5588 5586 5584 5582 5580 5578 5576 5574 5571 5569 5566 5564 5561 5559 5556 5553 5550 5548 5544 5541 5538 5535 5532 5529 5526 5523 5520 5517 5514 5510 5508 5504 5502 5499 5495 5492 5488 5485 5482 5479 5476 5473 5470 5467 5464 5460 5457 5453 5449 5445 5441 5437 5433 5429 5425 5422 5418 5414 5409 5405 5401 5397 5393 5389
5593 5591 5589 5588 5586 5584 5582 5580 5579 5576 5574 5572 5570 5568 5565 5563 5560 5558 5555 5553 5550 5547 5544 5541 5538 5535 5532 5529 5526 5523 5520 5517 5514 5510 5507 5504 5502 5499 5495 5492 5489 5485 5482 5479 5477 5474 5471 5468 5465 5462 5458 5455 5451 5447 5443 5439 5435 5432 5428 5424 5420 5416 5412 5408 5404 5400 5396 5392 5389
5589 5587 5585 5584 5582 5580 5578 5576 5574 5573 5571 5569 5566 5564 5562 5559 5557 5554 5552 5549 5546 5544 5541 5538 5535 5532 5529 5526 5523 5520 5517 5513 5510 5507 5504 5501 5499 5495 5492 5489 5486 5483 5480 5477 5474 5471 5468 5465 5462 5459 5456 5453 5449 5445 5441 5438 5434 5430 5426 5422 5418 5414 5410 5406 5403 5399 5395 5391 5387
5585 5584 5582 5580 5578 5576 5574 5573 5571 5569 5567 5565 5563 5560 5558 5556 5553 5551 5548 5546 5543 5540 5537 5534 5532 5529 5526 5523 5520 5516 5513 5510 5507 5504 5501 5498 5495 5492 5489 5486 5483 5480 5477 5474 5471 5468 5465 5463 5459 5457 5454 5450 5447 5443 5439 5435 5432 5428 5424 5420 5416 5413 5409 5404 5401 5397 5393 5389 5385
5581 5580 5578 5576 5574 5572 5570 5569 5567 5565 5563 5561 5559 5556 5554 5552 5550 5547 5545 5542 5539 5537 5534 5531 5529 5526 5523 5519 5516 5513 5509 5506 5503 5500 5498 5495 5492 5489 5486 5484 5480 5478 5474 5472 5469 5466 5463 5460 5457 5454 5451 5448 5444 5440 5437 5433 5429 5426 5422 5418 5414 5410 5406 5402 5398 5394 5390 5387 5383
5577 5575 5574 5572 5570 5568 5567 5565 5563 5561 5559 5557 5555 5553 5551 5549 5546 5544 5541 5539 5536 5534 5531 5528 5525 5522 5519 5516 5513 5509 5506 5503 5500 5497 5494 5492 5489 5486 5484 5481 5478 5475 5472 5469 5466 5463 5460 5458 5454 5452 5449 5445 5441 5438 5434 5431 5427 5424 5420 5416 5412 5408 5404 5400 5396 5392 5388 5384 5381
5573 5571 5569 5567 5566 5564 5563 5561 5559 5557 5555 5553 5551 5549 5548 5545 5543 5540 5538 5535 5533 5530 5528 5525 5522 5519 5515 5512 5509 5506 5503 5499 5496 5494 5491 5489 5486 5484 5481 5478 5475 5472 5469 5466 5464 5461 5458 5455 5452 5449 5446 5443 5439 5435 5432 5429 5425 5421 5417 5414 5410 5406 5402 5398 5394 5390 5386 5382 5379
5568 5566 5564 5563 5561 5560 5559 5557 5555 5553 5551 5550 5548 5546 5544 5542 5539 5537 5534 5532 5530 5527 5524 5521 5518 5515 5512 5509 5505 5502 5499 5496 5494 5491 5488 5486 5484 5481 5478 5475 5472 5469 5466 5464 5461 5458 5455 5453 5450 5447 5444 5440 5437 5433 5430 5426 5423 5419 5415 5411 5407 5404 5399 5396 5392 5388 5384 5380 5377
5563 5561 5560 5559 5557 5556 5554 5553 5551 5549 5548 5546 5544 5543 5540 5538 5536 5534 5531 5529 5527 5524 5521 5518 5514 5511 5508 5505 5502 5499 5496 5493 5490 5488 5485 5483 5481 5478 5476 5473 5469 5467 5464 5461 5458 5456 5453 5450 5447 5444 5441 5438 5434 5431 5427 5424 5420 5417 5413 5409 5405 5401 5398 5394 5390 5386 5382 5378 5375
5559 5557 5556 5554 5553 5552 5550 5549 5548 5546 5545 5543 5541 5539 5537 5534 5533 5531 5529 5526 5523 5520 5517 5514 5511 5508 5505 5502 5499 5497 5494 5490 5488 5485 5483 5480 5478 5476 5473 5470 5467 5464 5461 5459 5456 5453 5451 5448 5445 5442 5439 5435 5432 5429 5425 5422 5418 5414 5411 5407 5403 5399 5395 5392 5388 5384 5380 5376 5373
5555 5553 5552 5551 5549 5548 5547 5546 5544 5543 5541 5539 5537 5535 5533 5532 5530 5528 5525 5522 5519 5517 5514 5511 5508 5505 5502 5499 5497 5494 5491 5488 5485 5482 5480 5478 5475 5473 5470 5467 5464 5461 5459 5456 5454 5451 5448 5445 5443 5440 5437 5433 5430 5426 5423 5420 5416 5413 5409 5405 5401 5397 5394 5390 5386 5382 5378 5374 5371
5551 5550 5548 5547 5546 5544 5543 5542 5541 5539 5538 5536 5534 5532 5530 5529 5526 5524 5521 5519 5516 5513 5510 5508 5505 5502 5499 5497 5494 5491 5488 5485 5482 5479 5477 5475 5473 5470 5468 5465 5462 5459 5456 5454 5451 5449 5446 5443 5440 5437 5434 5431 5428 5424 5421 5418 5414 5411 5407 5403 5399 5396 5392 5388 5384 5380 5377 5373 5369
5548 5546 5545 5543 5542 5541 5540 5539 5537 5536 5534 5533 5531 5529 5528 5525 5523 5521 5518 5515 5513 5510 5507 5504 5502 5499 5497 5494 5491 5488 5485 5482 5479 5477 5474 5472 5470 5468 5465 5462 5459 5456 5454 5451 5449 5446 5444 5441 5438 5435 5432 5429 5425 5422 5419 5416 5412 5409 5405 5401 5398 5394 5390 5386 5383 5379 5375 5371 5368
5544 5543 5541 5540 5539 5538 5536 5535 5534 5533 5531 5530 5528 5526 5524 5522 5520 5518 5515 5512 5509 5507 5504 5502 5499 5497 5494 5491 5488 5485 5482 5479 5477 5474 5472 5469 5467 5465 5463 5460 5457 5454 5451 5449 5446 5444 5441 5439 5436 5433 5430 5427 5424 5420 5417 5414 5410 5407 5403 5399 5396 5392 5389 5385 5381 5377 5374 5370 5367
5541 5539 5538 5537 5535 5534 5534 5532 5531 5530 5529 5527 5525 5523 5521 5519 5517 5514 5512 5509 5506 5504 5501 5499 5496 5494 5491 5489 5485 5482 5479 5476 5474 5471 5469 5467 5465 5463 5460 5457 5454 5452 5449 5447 5444 5442 5439 5436 5434 5431 5428 5425 5422 5418 5415 5412 5409 5405 5402 5398 5394 5391 5387 5383 5379 5376 5372 5369 5365
5538 5536 5535 5534 5533 5532 5531 5530 5529 5527 5526 5524 5523 5521 5519 5516 5514 5512 5509 5506 5504 5501 5499 5496 5494 5491 5489 5486 5483 5479 5477 5474 5471 5469 5466 5464 5462 5460 5458 5455 5452 5449 5447 5444 5442 5439 5437 5434 5431 5429 5426 5423 5419 5416 5413 5410 5407 5404 5400 5396 5393 5389 5385 5382 5378 5374 5371 5368 5364